owner,sensor,date,latitude,longitude,air_pressure(mBar),qcFlag 
COMPS,ioos:station:USF.COMPS:TAR:1,2011-04-01T01:00:00Z,28.1560,-82.7580,1006.46,1111122 
COMPS,ioos:station:USF.COMPS:TAR:1,2011-04-01T01:06:00Z,28.1560,-82.7580,1006.4,1111122 
COMPS,ioos:station:USF.COMPS:TAR:1,2011-04-01T01:12:00Z,28.1560,-82.7580,1006.36,1111122 
COMPS,ioos:station:USF.COMPS:TAR:1,2011-04-01T01:18:00Z,28.1560,-82.7580,1006.38,1111122 
COMPS,ioos:station:USF.COMPS:TAR:1,2011-04-01T01:24:00Z,28.1560,-82.7580,1006.34,1111122 
COMPS,ioos:station:USF.COMPS:TAR:1,2011-04-01T01:30:00Z,28.1560,-82.7580,1006.42,1111122 
COMPS,ioos:station:USF.COMPS:TAR:1,2011-04-01T01:36:00Z,28.1560,-82.7580,1006.42,1111122 
COMPS,ioos:station:USF.COMPS:TAR:1,2011-04-01T01:42:00Z,28.1560,-82.7580,1006.5,1111122 
COMPS,ioos:station:USF.COMPS:TAR:1,2011-04-01T01:48:00Z,28.1560,-82.7580,1006.66,1111122 
COMPS,ioos:station:USF.COMPS:TAR:1,2011-04-01T01:54:00Z,28.1560,-82.7580,1006.76,1111122 
COMPS,ioos:station:USF.COMPS:TAR:1,2011-04-01T05:00:00Z,28.1560,-82.7580,1007.29,1111122 
COMPS,ioos:station:USF.COMPS:TAR:1,2011-04-01T05:06:00Z,28.1560,-82.7580,1007.14,1111122 
COMPS,ioos:station:USF.COMPS:TAR:1,2011-04-01T05:12:00Z,28.1560,-82.7580,1007.16,1111122 
COMPS,ioos:station:USF.COMPS:TAR:1,2011-04-01T05:18:00Z,28.1560,-82.7580,1007.16,1111122 
COMPS,ioos:station:USF.COMPS:TAR:1,2011-04-01T05:24:00Z,28.1560,-82.7580,1007.2,1111122 
COMPS,ioos:station:USF.COMPS:TAR:1,2011-04-01T05:30:00Z,28.1560,-82.7580,1007.18,1111122 
COMPS,ioos:station:USF.COMPS:TAR:1,2011-04-01T05:36:00Z,28.1560,-82.7580,1007.02,1111122 
COMPS,ioos:station:USF.COMPS:TAR:1,2011-04-01T05:42:00Z,28.1560,-82.7580,1006.96,1111122 
COMPS,ioos:station:USF.COMPS:TAR:1,2011-04-01T05:48:00Z,28.1560,-82.7580,1007.05,1111122 
COMPS,ioos:station:USF.COMPS:TAR:1,2011-04-01T05:54:00Z,28.1560,-82.7580,1007.1,1111122 
COMPS,ioos:station:USF.COMPS:TAR:1,2011-04-01T06:00:00Z,28.1560,-82.7580,1007.13,1111122 
COMPS,ioos:station:USF.COMPS:TAR:1,2011-04-01T06:06:00Z,28.1560,-82.7580,1007.13,1111122 
COMPS,ioos:station:USF.COMPS:TAR:1,2011-04-01T06:12:00Z,28.1560,-82.7580,1007.28,1111122 
COMPS,ioos:station:USF.COMPS:TAR:1,2011-04-01T06:18:00Z,28.1560,-82.7580,1007.38,1111122 
COMPS,ioos:station:USF.COMPS:TAR:1,2011-04-01T06:24:00Z,28.1560,-82.7580,1007.37,1111122 
COMPS,ioos:station:USF.COMPS:TAR:1,2011-04-01T06:30:00Z,28.1560,-82.7580,1007.36,1111122 
COMPS,ioos:station:USF.COMPS:TAR:1,2011-04-01T06:36:00Z,28.1560,-82.7580,1007.37,1111122 
COMPS,ioos:station:USF.COMPS:TAR:1,2011-04-01T06:42:00Z,28.1560,-82.7580,1007.3,1111122 
COMPS,ioos:station:USF.COMPS:TAR:1,2011-04-01T06:48:00Z,28.1560,-82.7580,1007.4,1111122 
COMPS,ioos:station:USF.COMPS:TAR:1,2011-04-01T06:54:00Z,28.1560,-82.7580,1007.42,1111122 
COMPS,ioos:station:USF.COMPS:TAR:1,2011-04-01T09:00:00Z,28.1560,-82.7580,1007.77,1111122 
COMPS,ioos:station:USF.COMPS:TAR:1,2011-04-01T09:06:00Z,28.1560,-82.7580,1007.84,1111122 
COMPS,ioos:station:USF.COMPS:TAR:1,2011-04-01T09:12:00Z,28.1560,-82.7580,1007.85,1111122 
COMPS,ioos:station:USF.COMPS:TAR:1,2011-04-01T09:18:00Z,28.1560,-82.7580,1007.92,1111122 
COMPS,ioos:station:USF.COMPS:TAR:1,2011-04-01T09:24:00Z,28.1560,-82.7580,1007.96,1111122 
COMPS,ioos:station:USF.COMPS:TAR:1,2011-04-01T09:30:00Z,28.1560,-82.7580,1007.66,1111122 
COMPS,ioos:station:USF.COMPS:TAR:1,2011-04-01T09:36:00Z,28.1560,-82.7580,1007.72,1111122 
COMPS,ioos:station:USF.COMPS:TAR:1,2011-04-01T09:42:00Z,28.1560,-82.7580,1007.73,1111122 
COMPS,ioos:station:USF.COMPS:TAR:1,2011-04-01T09:48:00Z,28.1560,-82.7580,1007.89,1111122 
COMPS,ioos:station:USF.COMPS:TAR:1,2011-04-01T09:54:00Z,28.1560,-82.7580,1007.97,1111122 
COMPS,ioos:station:USF.COMPS:TAR:1,2011-04-01T12:00:00Z,28.1560,-82.7580,1010.24,1111122 
COMPS,ioos:station:USF.COMPS:TAR:1,2011-04-01T12:06:00Z,28.1560,-82.7580,1010.3,1111122 
COMPS,ioos:station:USF.COMPS:TAR:1,2011-04-01T12:12:00Z,28.1560,-82.7580,1010.44,1111122 
COMPS,ioos:station:USF.COMPS:TAR:1,2011-04-01T12:18:00Z,28.1560,-82.7580,1010.45,1111122 
COMPS,ioos:station:USF.COMPS:TAR:1,2011-04-01T12:24:00Z,28.1560,-82.7580,1010.45,1111122 
COMPS,ioos:station:USF.COMPS:TAR:1,2011-04-01T12:30:00Z,28.1560,-82.7580,1010.5,1111122 
COMPS,ioos:station:USF.COMPS:TAR:1,2011-04-01T12:36:00Z,28.1560,-82.7580,1010.57,1111122 
COMPS,ioos:station:USF.COMPS:TAR:1,2011-04-01T12:42:00Z,28.1560,-82.7580,1010.7,1111122 
COMPS,ioos:station:USF.COMPS:TAR:1,2011-04-01T12:48:00Z,28.1560,-82.7580,1010.84,1111122 
COMPS,ioos:station:USF.COMPS:TAR:1,2011-04-01T12:54:00Z,28.1560,-82.7580,1010.86,1111122 
COMPS,ioos:station:USF.COMPS:TAR:1,2011-04-01T16:00:00Z,28.1560,-82.7580,1012.17,1111122 
COMPS,ioos:station:USF.COMPS:TAR:1,2011-04-01T16:06:00Z,28.1560,-82.7580,1012.2,1111122 
COMPS,ioos:station:USF.COMPS:TAR:1,2011-04-01T16:12:00Z,28.1560,-82.7580,1012.21,1111122 
COMPS,ioos:station:USF.COMPS:TAR:1,2011-04-01T16:18:00Z,28.1560,-82.7580,1012.2,1111122 
COMPS,ioos:station:USF.COMPS:TAR:1,2011-04-01T16:24:00Z,28.1560,-82.7580,1012.25,1111122 
COMPS,ioos:station:USF.COMPS:TAR:1,2011-04-01T16:30:00Z,28.1560,-82.7580,1012.24,1111122 
COMPS,ioos:station:USF.COMPS:TAR:1,2011-04-01T16:36:00Z,28.1560,-82.7580,1012.25,1111122 
COMPS,ioos:station:USF.COMPS:TAR:1,2011-04-01T16:42:00Z,28.1560,-82.7580,1012.17,1111122 
COMPS,ioos:station:USF.COMPS:TAR:1,2011-04-01T16:48:00Z,28.1560,-82.7580,1012.17,1111122 
COMPS,ioos:station:USF.COMPS:TAR:1,2011-04-01T16:54:00Z,28.1560,-82.7580,1012.17,1111122 
COMPS,ioos:station:USF.COMPS:TAR:1,2011-04-01T18:00:00Z,28.1560,-82.7580,1011.85,1111122 
COMPS,ioos:station:USF.COMPS:TAR:1,2011-04-01T18:06:00Z,28.1560,-82.7580,1011.77,1111122 
COMPS,ioos:station:USF.COMPS:TAR:1,2011-04-01T18:12:00Z,28.1560,-82.7580,1011.73,1111122 
COMPS,ioos:station:USF.COMPS:TAR:1,2011-04-01T18:18:00Z,28.1560,-82.7580,1011.74,1111122 
COMPS,ioos:station:USF.COMPS:TAR:1,2011-04-01T18:24:00Z,28.1560,-82.7580,1011.76,1111122 
COMPS,ioos:station:USF.COMPS:TAR:1,2011-04-01T18:30:00Z,28.1560,-82.7580,1011.82,1111122 
COMPS,ioos:station:USF.COMPS:TAR:1,2011-04-01T18:36:00Z,28.1560,-82.7580,1011.86,1111122 
COMPS,ioos:station:USF.COMPS:TAR:1,2011-04-01T18:42:00Z,28.1560,-82.7580,1011.8,1111122 
COMPS,ioos:station:USF.COMPS:TAR:1,2011-04-01T18:48:00Z,28.1560,-82.7580,1011.77,1111122 
COMPS,ioos:station:USF.COMPS:TAR:1,2011-04-01T18:54:00Z,28.1560,-82.7580,1011.73,1111122 
COMPS,ioos:station:USF.COMPS:TAR:1,2011-04-01T21:00:00Z,28.1560,-82.7580,1011.28,1111122 
COMPS,ioos:station:USF.COMPS:TAR:1,2011-04-01T21:06:00Z,28.1560,-82.7580,1011.29,1111122 
COMPS,ioos:station:USF.COMPS:TAR:1,2011-04-01T21:12:00Z,28.1560,-82.7580,1011.36,1111122 
COMPS,ioos:station:USF.COMPS:TAR:1,2011-04-01T21:18:00Z,28.1560,-82.7580,1011.45,1111122 
COMPS,ioos:station:USF.COMPS:TAR:1,2011-04-01T21:24:00Z,28.1560,-82.7580,1011.4,1111122 
COMPS,ioos:station:USF.COMPS:TAR:1,2011-04-01T21:30:00Z,28.1560,-82.7580,1011.3,1111122 
COMPS,ioos:station:USF.COMPS:TAR:1,2011-04-01T21:36:00Z,28.1560,-82.7580,1011.34,1111122 
COMPS,ioos:station:USF.COMPS:TAR:1,2011-04-01T21:42:00Z,28.1560,-82.7580,1011.49,1111122 
COMPS,ioos:station:USF.COMPS:TAR:1,2011-04-01T21:48:00Z,28.1560,-82.7580,1011.5,1111122 
COMPS,ioos:station:USF.COMPS:TAR:1,2011-04-01T21:54:00Z,28.1560,-82.7580,1011.5,1111122 
COMPS,ioos:station:USF.COMPS:TAR:1,2011-04-02T00:00:00Z,28.1560,-82.7580,1012.48,1111122 
COMPS,ioos:station:USF.COMPS:TAR:1,2011-04-02T00:06:00Z,28.1560,-82.7580,1012.54,1111122 
COMPS,ioos:station:USF.COMPS:TAR:1,2011-04-02T00:12:00Z,28.1560,-82.7580,1012.62,1111122 
COMPS,ioos:station:USF.COMPS:TAR:1,2011-04-02T00:18:00Z,28.1560,-82.7580,1012.73,1111122 
COMPS,ioos:station:USF.COMPS:TAR:1,2011-04-02T00:24:00Z,28.1560,-82.7580,1012.84,1111122 
COMPS,ioos:station:USF.COMPS:TAR:1,2011-04-02T00:30:00Z,28.1560,-82.7580,1012.84,1111122 
COMPS,ioos:station:USF.COMPS:TAR:1,2011-04-02T00:36:00Z,28.1560,-82.7580,1012.81,1111122 
COMPS,ioos:station:USF.COMPS:TAR:1,2011-04-02T00:42:00Z,28.1560,-82.7580,1012.88,1111122 
COMPS,ioos:station:USF.COMPS:TAR:1,2011-04-02T00:48:00Z,28.1560,-82.7580,1012.92,1111122 
COMPS,ioos:station:USF.COMPS:TAR:1,2011-04-02T00:54:00Z,28.1560,-82.7580,1012.93,1111122 
COMPS,ioos:station:USF.COMPS:TAR:1,2011-04-02T03:00:00Z,28.1560,-82.7580,1013.86,1111122 
COMPS,ioos:station:USF.COMPS:TAR:1,2011-04-02T03:06:00Z,28.1560,-82.7580,1013.94,1111122 
COMPS,ioos:station:USF.COMPS:TAR:1,2011-04-02T03:12:00Z,28.1560,-82.7580,1014.01,1111122 
COMPS,ioos:station:USF.COMPS:TAR:1,2011-04-02T03:18:00Z,28.1560,-82.7580,1014.12,1111122 
COMPS,ioos:station:USF.COMPS:TAR:1,2011-04-02T03:24:00Z,28.1560,-82.7580,1014.14,1111122 
COMPS,ioos:station:USF.COMPS:TAR:1,2011-04-02T03:30:00Z,28.1560,-82.7580,1014.18,1111122 
COMPS,ioos:station:USF.COMPS:TAR:1,2011-04-02T03:36:00Z,28.1560,-82.7580,1014.16,1111122 
COMPS,ioos:station:USF.COMPS:TAR:1,2011-04-02T03:42:00Z,28.1560,-82.7580,1014.18,1111122 
COMPS,ioos:station:USF.COMPS:TAR:1,2011-04-02T03:48:00Z,28.1560,-82.7580,1014.16,1111122 
COMPS,ioos:station:USF.COMPS:TAR:1,2011-04-02T03:54:00Z,28.1560,-82.7580,1014.17,1111122 
COMPS,ioos:station:USF.COMPS:TAR:1,2011-04-02T06:00:00Z,28.1560,-82.7580,1014.25,1111122 
COMPS,ioos:station:USF.COMPS:TAR:1,2011-04-02T06:06:00Z,28.1560,-82.7580,1014.24,1111122 
COMPS,ioos:station:USF.COMPS:TAR:1,2011-04-02T06:12:00Z,28.1560,-82.7580,1014.3,1111122 
COMPS,ioos:station:USF.COMPS:TAR:1,2011-04-02T06:18:00Z,28.1560,-82.7580,1014.37,1111122 
COMPS,ioos:station:USF.COMPS:TAR:1,2011-04-02T06:24:00Z,28.1560,-82.7580,1014.32,1111122 
COMPS,ioos:station:USF.COMPS:TAR:1,2011-04-02T06:30:00Z,28.1560,-82.7580,1014.36,1111122 
COMPS,ioos:station:USF.COMPS:TAR:1,2011-04-02T06:36:00Z,28.1560,-82.7580,1014.37,1111122 
COMPS,ioos:station:USF.COMPS:TAR:1,2011-04-02T06:42:00Z,28.1560,-82.7580,1014.37,1111122 
COMPS,ioos:station:USF.COMPS:TAR:1,2011-04-02T06:48:00Z,28.1560,-82.7580,1014.33,1111122 
COMPS,ioos:station:USF.COMPS:TAR:1,2011-04-02T06:54:00Z,28.1560,-82.7580,1014.29,1111122 
COMPS,ioos:station:USF.COMPS:TAR:1,2011-04-02T09:00:00Z,28.1560,-82.7580,1013.41,1111122 
COMPS,ioos:station:USF.COMPS:TAR:1,2011-04-02T09:06:00Z,28.1560,-82.7580,1013.52,1111122 
COMPS,ioos:station:USF.COMPS:TAR:1,2011-04-02T09:12:00Z,28.1560,-82.7580,1013.68,1111122 
COMPS,ioos:station:USF.COMPS:TAR:1,2011-04-02T09:18:00Z,28.1560,-82.7580,1013.8,1111122 
COMPS,ioos:station:USF.COMPS:TAR:1,2011-04-02T09:24:00Z,28.1560,-82.7580,1013.84,1111122 
COMPS,ioos:station:USF.COMPS:TAR:1,2011-04-02T09:30:00Z,28.1560,-82.7580,1013.84,1111122 
COMPS,ioos:station:USF.COMPS:TAR:1,2011-04-02T09:36:00Z,28.1560,-82.7580,1013.93,1111122 
COMPS,ioos:station:USF.COMPS:TAR:1,2011-04-02T09:42:00Z,28.1560,-82.7580,1014.12,1111122 
COMPS,ioos:station:USF.COMPS:TAR:1,2011-04-02T09:48:00Z,28.1560,-82.7580,1014.26,1111122 
COMPS,ioos:station:USF.COMPS:TAR:1,2011-04-02T09:54:00Z,28.1560,-82.7580,1014.38,1111122 
COMPS,ioos:station:USF.COMPS:TAR:1,2011-04-02T12:00:00Z,28.1560,-82.7580,1015.6,1111122 
COMPS,ioos:station:USF.COMPS:TAR:1,2011-04-02T12:06:00Z,28.1560,-82.7580,1015.72,1111122 
COMPS,ioos:station:USF.COMPS:TAR:1,2011-04-02T12:12:00Z,28.1560,-82.7580,1015.88,1111122 
COMPS,ioos:station:USF.COMPS:TAR:1,2011-04-02T12:18:00Z,28.1560,-82.7580,1015.94,1111122 
COMPS,ioos:station:USF.COMPS:TAR:1,2011-04-02T12:24:00Z,28.1560,-82.7580,1016.04,1111122 
COMPS,ioos:station:USF.COMPS:TAR:1,2011-04-02T12:30:00Z,28.1560,-82.7580,1016.01,1111122 
COMPS,ioos:station:USF.COMPS:TAR:1,2011-04-02T12:36:00Z,28.1560,-82.7580,1015.92,1111122 
COMPS,ioos:station:USF.COMPS:TAR:1,2011-04-02T12:42:00Z,28.1560,-82.7580,1015.92,1111122 
COMPS,ioos:station:USF.COMPS:TAR:1,2011-04-02T12:48:00Z,28.1560,-82.7580,1015.97,1111122 
COMPS,ioos:station:USF.COMPS:TAR:1,2011-04-02T12:54:00Z,28.1560,-82.7580,1016.09,1111122 
COMPS,ioos:station:USF.COMPS:TAR:1,2011-04-02T15:00:00Z,28.1560,-82.7580,1017.32,1111122 
COMPS,ioos:station:USF.COMPS:TAR:1,2011-04-02T15:06:00Z,28.1560,-82.7580,1017.21,1111122 
COMPS,ioos:station:USF.COMPS:TAR:1,2011-04-02T15:12:00Z,28.1560,-82.7580,1017.2,1111122 
COMPS,ioos:station:USF.COMPS:TAR:1,2011-04-02T15:18:00Z,28.1560,-82.7580,1017.21,1111122 
COMPS,ioos:station:USF.COMPS:TAR:1,2011-04-02T15:24:00Z,28.1560,-82.7580,1017.14,1111122 
COMPS,ioos:station:USF.COMPS:TAR:1,2011-04-02T15:30:00Z,28.1560,-82.7580,1017.13,1111122 
COMPS,ioos:station:USF.COMPS:TAR:1,2011-04-02T15:36:00Z,28.1560,-82.7580,1017.16,1111122 
COMPS,ioos:station:USF.COMPS:TAR:1,2011-04-02T15:42:00Z,28.1560,-82.7580,1017.05,1111122 
COMPS,ioos:station:USF.COMPS:TAR:1,2011-04-02T15:48:00Z,28.1560,-82.7580,1017.16,1111122 
COMPS,ioos:station:USF.COMPS:TAR:1,2011-04-02T15:54:00Z,28.1560,-82.7580,1017.17,1111122 
COMPS,ioos:station:USF.COMPS:TAR:1,2011-04-02T17:00:00Z,28.1560,-82.7580,1017.2,1111122 
COMPS,ioos:station:USF.COMPS:TAR:1,2011-04-02T17:06:00Z,28.1560,-82.7580,1017.17,1111122 
COMPS,ioos:station:USF.COMPS:TAR:1,2011-04-02T17:12:00Z,28.1560,-82.7580,1017.14,1111122 
COMPS,ioos:station:USF.COMPS:TAR:1,2011-04-02T17:18:00Z,28.1560,-82.7580,1017.05,1111122 
COMPS,ioos:station:USF.COMPS:TAR:1,2011-04-02T17:24:00Z,28.1560,-82.7580,1016.97,1111122 
COMPS,ioos:station:USF.COMPS:TAR:1,2011-04-02T17:30:00Z,28.1560,-82.7580,1016.98,1111122 
COMPS,ioos:station:USF.COMPS:TAR:1,2011-04-02T17:36:00Z,28.1560,-82.7580,1016.94,1111122 
COMPS,ioos:station:USF.COMPS:TAR:1,2011-04-02T17:42:00Z,28.1560,-82.7580,1016.94,1111122 
COMPS,ioos:station:USF.COMPS:TAR:1,2011-04-02T17:48:00Z,28.1560,-82.7580,1016.9,1111122 
COMPS,ioos:station:USF.COMPS:TAR:1,2011-04-02T17:54:00Z,28.1560,-82.7580,1016.85,1111122 
COMPS,ioos:station:USF.COMPS:TAR:1,2011-04-02T20:00:00Z,28.1560,-82.7580,1015.53,1111122 
COMPS,ioos:station:USF.COMPS:TAR:1,2011-04-02T20:06:00Z,28.1560,-82.7580,1015.56,1111122 
COMPS,ioos:station:USF.COMPS:TAR:1,2011-04-02T20:12:00Z,28.1560,-82.7580,1015.45,1111122 
COMPS,ioos:station:USF.COMPS:TAR:1,2011-04-02T20:18:00Z,28.1560,-82.7580,1015.53,1111122 
COMPS,ioos:station:USF.COMPS:TAR:1,2011-04-02T20:24:00Z,28.1560,-82.7580,1015.56,1111122 
COMPS,ioos:station:USF.COMPS:TAR:1,2011-04-02T20:30:00Z,28.1560,-82.7580,1015.56,1111122 
COMPS,ioos:station:USF.COMPS:TAR:1,2011-04-02T20:36:00Z,28.1560,-82.7580,1015.41,1111122 
COMPS,ioos:station:USF.COMPS:TAR:1,2011-04-02T20:42:00Z,28.1560,-82.7580,1015.3,1111122 
COMPS,ioos:station:USF.COMPS:TAR:1,2011-04-02T20:48:00Z,28.1560,-82.7580,1015.33,1111122 
COMPS,ioos:station:USF.COMPS:TAR:1,2011-04-02T20:54:00Z,28.1560,-82.7580,1015.44,1111122 
COMPS,ioos:station:USF.COMPS:TAR:1,2011-04-02T23:00:00Z,28.1560,-82.7580,1015.7,1111122 
COMPS,ioos:station:USF.COMPS:TAR:1,2011-04-02T23:06:00Z,28.1560,-82.7580,1015.76,1111122 
COMPS,ioos:station:USF.COMPS:TAR:1,2011-04-02T23:12:00Z,28.1560,-82.7580,1015.81,1111122 
COMPS,ioos:station:USF.COMPS:TAR:1,2011-04-02T23:18:00Z,28.1560,-82.7580,1015.92,1111122 
COMPS,ioos:station:USF.COMPS:TAR:1,2011-04-02T23:24:00Z,28.1560,-82.7580,1016.0,1111122 
COMPS,ioos:station:USF.COMPS:TAR:1,2011-04-02T23:30:00Z,28.1560,-82.7580,1016.0,1111122 
COMPS,ioos:station:USF.COMPS:TAR:1,2011-04-02T23:36:00Z,28.1560,-82.7580,1016.01,1111122 
COMPS,ioos:station:USF.COMPS:TAR:1,2011-04-02T23:42:00Z,28.1560,-82.7580,1016.12,1111122 
COMPS,ioos:station:USF.COMPS:TAR:1,2011-04-02T23:48:00Z,28.1560,-82.7580,1016.24,1111122 
COMPS,ioos:station:USF.COMPS:TAR:1,2011-04-02T23:54:00Z,28.1560,-82.7580,1016.21,1111122 
COMPS,ioos:station:USF.COMPS:TAR:1,2011-04-03T02:00:00Z,28.1560,-82.7580,1017.37,1111122 
COMPS,ioos:station:USF.COMPS:TAR:1,2011-04-03T02:06:00Z,28.1560,-82.7580,1017.38,1111122 
COMPS,ioos:station:USF.COMPS:TAR:1,2011-04-03T02:12:00Z,28.1560,-82.7580,1017.49,1111122 
COMPS,ioos:station:USF.COMPS:TAR:1,2011-04-03T02:18:00Z,28.1560,-82.7580,1017.49,1111122 
COMPS,ioos:station:USF.COMPS:TAR:1,2011-04-03T02:24:00Z,28.1560,-82.7580,1017.4,1111122 
COMPS,ioos:station:USF.COMPS:TAR:1,2011-04-03T02:30:00Z,28.1560,-82.7580,1017.38,1111122 
COMPS,ioos:station:USF.COMPS:TAR:1,2011-04-03T02:36:00Z,28.1560,-82.7580,1017.37,1111122 
COMPS,ioos:station:USF.COMPS:TAR:1,2011-04-03T02:42:00Z,28.1560,-82.7580,1017.38,1111122 
COMPS,ioos:station:USF.COMPS:TAR:1,2011-04-03T02:48:00Z,28.1560,-82.7580,1017.5,1111122 
COMPS,ioos:station:USF.COMPS:TAR:1,2011-04-03T02:54:00Z,28.1560,-82.7580,1017.54,1111122 
COMPS,ioos:station:USF.COMPS:TAR:1,2011-04-03T05:00:00Z,28.1560,-82.7580,1017.72,1111122 
COMPS,ioos:station:USF.COMPS:TAR:1,2011-04-03T05:06:00Z,28.1560,-82.7580,1017.72,1111122 
COMPS,ioos:station:USF.COMPS:TAR:1,2011-04-03T05:12:00Z,28.1560,-82.7580,1017.76,1111122 
COMPS,ioos:station:USF.COMPS:TAR:1,2011-04-03T05:18:00Z,28.1560,-82.7580,1017.76,1111122 
COMPS,ioos:station:USF.COMPS:TAR:1,2011-04-03T05:24:00Z,28.1560,-82.7580,1017.68,1111122 
COMPS,ioos:station:USF.COMPS:TAR:1,2011-04-03T05:30:00Z,28.1560,-82.7580,1017.7,1111122 
COMPS,ioos:station:USF.COMPS:TAR:1,2011-04-03T05:36:00Z,28.1560,-82.7580,1017.76,1111122 
COMPS,ioos:station:USF.COMPS:TAR:1,2011-04-03T05:42:00Z,28.1560,-82.7580,1017.69,1111122 
COMPS,ioos:station:USF.COMPS:TAR:1,2011-04-03T05:48:00Z,28.1560,-82.7580,1017.76,1111122 
COMPS,ioos:station:USF.COMPS:TAR:1,2011-04-03T05:54:00Z,28.1560,-82.7580,1017.76,1111122 
COMPS,ioos:station:USF.COMPS:TAR:1,2011-04-03T08:00:00Z,28.1560,-82.7580,1017.36,1111122 
COMPS,ioos:station:USF.COMPS:TAR:1,2011-04-03T08:06:00Z,28.1560,-82.7580,1017.36,1111122 
COMPS,ioos:station:USF.COMPS:TAR:1,2011-04-03T08:12:00Z,28.1560,-82.7580,1017.36,1111122 
COMPS,ioos:station:USF.COMPS:TAR:1,2011-04-03T08:18:00Z,28.1560,-82.7580,1017.36,1111122 
COMPS,ioos:station:USF.COMPS:TAR:1,2011-04-03T08:24:00Z,28.1560,-82.7580,1017.36,1111122 
COMPS,ioos:station:USF.COMPS:TAR:1,2011-04-03T08:30:00Z,28.1560,-82.7580,1017.36,1111122 
COMPS,ioos:station:USF.COMPS:TAR:1,2011-04-03T08:36:00Z,28.1560,-82.7580,1017.36,1111122 
COMPS,ioos:station:USF.COMPS:TAR:1,2011-04-03T08:42:00Z,28.1560,-82.7580,1017.38,1111122 
COMPS,ioos:station:USF.COMPS:TAR:1,2011-04-03T08:48:00Z,28.1560,-82.7580,1017.41,1111122 
COMPS,ioos:station:USF.COMPS:TAR:1,2011-04-03T08:54:00Z,28.1560,-82.7580,1017.48,1111122 
COMPS,ioos:station:USF.COMPS:TAR:1,2011-04-03T11:00:00Z,28.1560,-82.7580,1018.69,1111122 
COMPS,ioos:station:USF.COMPS:TAR:1,2011-04-03T11:06:00Z,28.1560,-82.7580,1018.73,1111122 
COMPS,ioos:station:USF.COMPS:TAR:1,2011-04-03T11:12:00Z,28.1560,-82.7580,1018.89,1111122 
COMPS,ioos:station:USF.COMPS:TAR:1,2011-04-03T11:18:00Z,28.1560,-82.7580,1018.92,1111122 
COMPS,ioos:station:USF.COMPS:TAR:1,2011-04-03T11:24:00Z,28.1560,-82.7580,1019.0,1111122 
COMPS,ioos:station:USF.COMPS:TAR:1,2011-04-03T11:30:00Z,28.1560,-82.7580,1019.1,1111122 
COMPS,ioos:station:USF.COMPS:TAR:1,2011-04-03T11:36:00Z,28.1560,-82.7580,1019.17,1111122 
COMPS,ioos:station:USF.COMPS:TAR:1,2011-04-03T11:42:00Z,28.1560,-82.7580,1019.25,1111122 
COMPS,ioos:station:USF.COMPS:TAR:1,2011-04-03T11:48:00Z,28.1560,-82.7580,1019.26,1111122 
COMPS,ioos:station:USF.COMPS:TAR:1,2011-04-03T11:54:00Z,28.1560,-82.7580,1019.38,1111122 
COMPS,ioos:station:USF.COMPS:TAR:1,2011-04-03T14:00:00Z,28.1560,-82.7580,1020.44,1111122 
COMPS,ioos:station:USF.COMPS:TAR:1,2011-04-03T14:06:00Z,28.1560,-82.7580,1020.52,1111122 
COMPS,ioos:station:USF.COMPS:TAR:1,2011-04-03T14:12:00Z,28.1560,-82.7580,1020.54,1111122 
COMPS,ioos:station:USF.COMPS:TAR:1,2011-04-03T14:18:00Z,28.1560,-82.7580,1020.49,1111122 
COMPS,ioos:station:USF.COMPS:TAR:1,2011-04-03T14:24:00Z,28.1560,-82.7580,1020.45,1111122 
COMPS,ioos:station:USF.COMPS:TAR:1,2011-04-03T14:30:00Z,28.1560,-82.7580,1020.45,1111122 
COMPS,ioos:station:USF.COMPS:TAR:1,2011-04-03T14:36:00Z,28.1560,-82.7580,1020.49,1111122 
COMPS,ioos:station:USF.COMPS:TAR:1,2011-04-03T14:42:00Z,28.1560,-82.7580,1020.44,1111122 
COMPS,ioos:station:USF.COMPS:TAR:1,2011-04-03T14:48:00Z,28.1560,-82.7580,1020.45,1111122 
COMPS,ioos:station:USF.COMPS:TAR:1,2011-04-03T14:54:00Z,28.1560,-82.7580,1020.41,1111122 
COMPS,ioos:station:USF.COMPS:TAR:1,2011-04-03T17:00:00Z,28.1560,-82.7580,1019.54,1111122 
COMPS,ioos:station:USF.COMPS:TAR:1,2011-04-03T17:06:00Z,28.1560,-82.7580,1019.46,1111122 
COMPS,ioos:station:USF.COMPS:TAR:1,2011-04-03T17:12:00Z,28.1560,-82.7580,1019.37,1111122 
COMPS,ioos:station:USF.COMPS:TAR:1,2011-04-03T17:18:00Z,28.1560,-82.7580,1019.26,1111122 
COMPS,ioos:station:USF.COMPS:TAR:1,2011-04-03T17:24:00Z,28.1560,-82.7580,1019.24,1111122 
COMPS,ioos:station:USF.COMPS:TAR:1,2011-04-03T17:30:00Z,28.1560,-82.7580,1019.21,1111122 
COMPS,ioos:station:USF.COMPS:TAR:1,2011-04-03T17:36:00Z,28.1560,-82.7580,1019.1,1111122 
COMPS,ioos:station:USF.COMPS:TAR:1,2011-04-03T17:42:00Z,28.1560,-82.7580,1019.06,1111122 
COMPS,ioos:station:USF.COMPS:TAR:1,2011-04-03T17:48:00Z,28.1560,-82.7580,1018.97,1111122 
COMPS,ioos:station:USF.COMPS:TAR:1,2011-04-03T17:54:00Z,28.1560,-82.7580,1018.9,1111122 
COMPS,ioos:station:USF.COMPS:TAR:1,2011-04-03T20:00:00Z,28.1560,-82.7580,1016.98,1111122 
COMPS,ioos:station:USF.COMPS:TAR:1,2011-04-03T20:06:00Z,28.1560,-82.7580,1016.93,1111122 
COMPS,ioos:station:USF.COMPS:TAR:1,2011-04-03T20:12:00Z,28.1560,-82.7580,1016.88,1111122 
COMPS,ioos:station:USF.COMPS:TAR:1,2011-04-03T20:18:00Z,28.1560,-82.7580,1016.86,1111122 
COMPS,ioos:station:USF.COMPS:TAR:1,2011-04-03T20:24:00Z,28.1560,-82.7580,1016.78,1111122 
COMPS,ioos:station:USF.COMPS:TAR:1,2011-04-03T20:30:00Z,28.1560,-82.7580,1016.72,1111122 
COMPS,ioos:station:USF.COMPS:TAR:1,2011-04-03T20:36:00Z,28.1560,-82.7580,1016.65,1111122 
COMPS,ioos:station:USF.COMPS:TAR:1,2011-04-03T20:42:00Z,28.1560,-82.7580,1016.56,1111122 
COMPS,ioos:station:USF.COMPS:TAR:1,2011-04-03T20:48:00Z,28.1560,-82.7580,1016.52,1111122 
COMPS,ioos:station:USF.COMPS:TAR:1,2011-04-03T20:54:00Z,28.1560,-82.7580,1016.52,1111122 
COMPS,ioos:station:USF.COMPS:TAR:1,2011-04-03T23:00:00Z,28.1560,-82.7580,1016.42,1111122 
COMPS,ioos:station:USF.COMPS:TAR:1,2011-04-03T23:06:00Z,28.1560,-82.7580,1016.41,1111122 
COMPS,ioos:station:USF.COMPS:TAR:1,2011-04-03T23:12:00Z,28.1560,-82.7580,1016.44,1111122 
COMPS,ioos:station:USF.COMPS:TAR:1,2011-04-03T23:18:00Z,28.1560,-82.7580,1016.52,1111122 
COMPS,ioos:station:USF.COMPS:TAR:1,2011-04-03T23:24:00Z,28.1560,-82.7580,1016.5,1111122 
COMPS,ioos:station:USF.COMPS:TAR:1,2011-04-03T23:30:00Z,28.1560,-82.7580,1016.49,1111122 
COMPS,ioos:station:USF.COMPS:TAR:1,2011-04-03T23:36:00Z,28.1560,-82.7580,1016.57,1111122 
COMPS,ioos:station:USF.COMPS:TAR:1,2011-04-03T23:42:00Z,28.1560,-82.7580,1016.56,1111122 
COMPS,ioos:station:USF.COMPS:TAR:1,2011-04-03T23:48:00Z,28.1560,-82.7580,1016.6,1111122 
COMPS,ioos:station:USF.COMPS:TAR:1,2011-04-03T23:54:00Z,28.1560,-82.7580,1016.73,1111122 
COMPS,ioos:station:USF.COMPS:TAR:1,2011-04-04T02:00:00Z,28.1560,-82.7580,1017.72,1111122 
COMPS,ioos:station:USF.COMPS:TAR:1,2011-04-04T02:06:00Z,28.1560,-82.7580,1017.78,1111122 
COMPS,ioos:station:USF.COMPS:TAR:1,2011-04-04T02:12:00Z,28.1560,-82.7580,1017.86,1111122 
COMPS,ioos:station:USF.COMPS:TAR:1,2011-04-04T02:18:00Z,28.1560,-82.7580,1017.89,1111122 
COMPS,ioos:station:USF.COMPS:TAR:1,2011-04-04T02:24:00Z,28.1560,-82.7580,1018.02,1111122 
COMPS,ioos:station:USF.COMPS:TAR:1,2011-04-04T02:30:00Z,28.1560,-82.7580,1018.02,1111122 
COMPS,ioos:station:USF.COMPS:TAR:1,2011-04-04T02:36:00Z,28.1560,-82.7580,1018.02,1111122 
COMPS,ioos:station:USF.COMPS:TAR:1,2011-04-04T02:42:00Z,28.1560,-82.7580,1018.01,1111122 
COMPS,ioos:station:USF.COMPS:TAR:1,2011-04-04T02:48:00Z,28.1560,-82.7580,1018.02,1111122 
COMPS,ioos:station:USF.COMPS:TAR:1,2011-04-04T02:54:00Z,28.1560,-82.7580,1018.02,1111122 
COMPS,ioos:station:USF.COMPS:TAR:1,2011-04-04T05:00:00Z,28.1560,-82.7580,1017.7,1111122 
COMPS,ioos:station:USF.COMPS:TAR:1,2011-04-04T05:06:00Z,28.1560,-82.7580,1017.64,1111122 
COMPS,ioos:station:USF.COMPS:TAR:1,2011-04-04T05:12:00Z,28.1560,-82.7580,1017.62,1111122 
COMPS,ioos:station:USF.COMPS:TAR:1,2011-04-04T05:18:00Z,28.1560,-82.7580,1017.61,1111122 
COMPS,ioos:station:USF.COMPS:TAR:1,2011-04-04T05:24:00Z,28.1560,-82.7580,1017.53,1111122 
COMPS,ioos:station:USF.COMPS:TAR:1,2011-04-04T05:30:00Z,28.1560,-82.7580,1017.46,1111122 